Theta_e
320 319 316 318 320 320 316 316 315 316 317 318 318 317 316 317 313 315 315 314 315 314 314 315 315 316 316 317 317 317 317 317 317 317 317 317 316 316
311 316 318 319 318 319 319 318 318 315 317 317 317 318 317 316 315 314 315 315 314 314 316 316 317 316 316 317 317 316 316 317 317 317 317 317 317 317
312 313 312 316 317 318 318 318 316 315 315 318 317 317 317 317 316 317 316 315 315 315 316 316 316 316 316 316 317 317 317 317 317 317 317 317 317 317
310 310 311 313 315 313 315 316 317 317 318 318 318 318 318 318 317 317 317 316 316 316 316 315 316 316 316 316 317 317 317 317 317 317 317 317 317 317
315 316 314 311 312 314 314 315 317 318 319 319 318 318 318 317 317 316 317 317 317 316 316 316 317 317 318 318 318 318 318 317 318 317 316 317 317 317
321 321 321 320 320 319 319 319 319 320 319 318 318 318 318 318 318 318 318 318 318 318 318 318 318 318 318 319 319 319 318 318 317 318 318 318 317 317
321 321 321 320 320 320 320 319 319 319 319 319 319 319 318 319 319 318 319 318 319 318 318 318 318 318 319 318 318 317 318 318 318 318 317 317 316 317
319 319 319 319 319 319 318 318 318 319 319 319 320 319 318 318 318 318 318 318 318 318 317 317 317 318 318 318 318 318 318 317 317 317 317 317 317 317
319 319 319 319 318 318 318 318 318 318 318 318 318 318 317 317 317 317 316 316 316 315 314 313 315 313 311 310 310 310 311 310 311 310 309 308 308 310
317 317 317 317 317 317 317 317 317 316 316 316 315 314 314 312 312 312 310 310 310 308 307 308 307 306 305 304 304 304 304 304 304 304 303 302 300 299
313 313 313 312 312 311 312 312 312 311 310 309 307 307 303 303 302 303 303 302 301 301 300 299 298 297 296 295 295 294 293 293 293 292 292 292 293 294
306 305 304 304 304 304 305 305 303 301 298 298 298 298 298 298 297 298 298 297 297 295 295 294 293 292 291 291 291 291 290 290 290 290 290 290 290 290
301 300 299 298 298 299 299 298 298 295 295 295 295 294 294 294 293 292 292 292 292 292 291 291 290 290 289 288 288 288 288 288 288 288 289 289 289 289
296 294 294 293 294 295 295 294 293 293 292 292 292 292 291 291 290 290 289 289 289 289 289 288 288 288 286 286 286 285 285 287 286 286 286 287 287 287
293 292 292 292 292 292 292 291 291 291 291 290 289 288 287 287 286 286 285 285 284 284 284 285 285 285 283 283 284 283 282 282 281 281 281 280 279 279
289 289 289 289 290 289 289 289 289 288 288 286 284 283 281 280 279 279 279 279 280 279 277 278 278 278 279 280 279 280 279 278 278 277 277 277 277 277
288 288 288 287 287 286 285 284 283 281 280 279 278 278 277 277 277 277 277 278 278 278 277 276 276 276 276 276 278 277 277 276 276 276 275 276 277 277
286 286 285 283 281 279 278 277 277 277 277 276 276 276 276 276 276 276 276 277 277 276 276 275 275 276 277 277 276 275 275 275 275 275 275 276 277 277
283 280 279 277 276 275 275 275 275 275 275 275 275 274 274 274 274 275 274 275 275 275 275 274 274 274 276 277 276 274 273 273 273 275 275 275 275 276
278 276 275 275 274 273 273 273 273 273 273 273 273 273 273 273 273 273 273 272 273 273 274 274 273 272 272 273 273 273 273 272 272 273 273 274 274 274
274 274 273 272 272 272 272 272 272 272 272 272 271 272 271 271 271 271 271 271 272 272 273 272 272 271 271 272 273 274 273 272 272 271 272 272 273 274
272 272 272 272 272 271 271 271 270 270 270 270 270 270 270 269 269 269 270 270 271 271 271 271 271 271 271 272 272 272 273 273 272 272 272 272 272 273
271 270 270 270 270 270 269 269 270 269 270 270 269 269 269 268 268 268 268 269 269 269 270 270 271 271 271 271 271 272 272 272 273 273 273 273 273 272
Wind_Speed
39 38 37 38 37 36 30 34 29 27 28 23 23 29 30 34 35 33 31 29 32 32 36 36 40 43 41 42 41 39 41 42 43 44 46 46 46 47
36 39 37 37 37 37 36 36 35 36 37 36 29 25 27 30 33 37 36 34 36 38 36 37 42 42 40 44 50 51 49 48 48 48 48 50 51 52
39 42 43 38 39 38 37 35 37 43 47 46 47 49 45 45 47 43 42 42 47 52 45 44 48 46 48 50 47 48 48 49 51 52 52 54 57 57
45 45 45 45 42 40 40 43 47 46 46 47 53 50 51 49 49 49 53 55 51 53 54 54 53 49 49 49 51 50 55 57 60 60 60 60 59 60
43 42 46 50 51 50 48 50 49 49 48 48 45 42 42 42 46 47 50 51 53 57 57 55 53 50 50 50 48 49 53 57 57 60 62 61 60 58
30 30 31 40 39 39 42 42 44 39 39 41 43 42 39 43 41 43 45 47 48 45 48 50 53 52 50 48 48 48 46 46 49 49 51 52 53 53
26 27 29 29 30 31 32 35 36 39 40 41 40 42 42 39 40 43 44 46 51 50 52 52 49 45 39 41 44 48 49 48 46 48 50 50 50 52
25 27 28 29 33 34 34 34 36 40 41 42 45 44 46 48 47 46 47 47 46 43 45 39 43 45 45 49 52 53 51 52 54 54 54 55 55 53
28 29 31 32 33 34 35 37 39 43 47 52 54 47 37 33 34 36 34 36 37 32 30 33 37 34 31 33 37 39 41 42 44 44 42 42 45 48
30 32 31 30 31 34 34 35 37 40 42 42 42 42 42 39 39 38 39 41 41 40 42 38 35 31 32 32 36 40 43 44 45 40 35 30 26 23
17 18 21 23 24 25 27 29 29 29 29 28 28 29 25 24 22 22 21 21 18 20 23 18 16 15 15 16 16 15 12 9 9 9 9 9 11 15
3 5 8 8 6 5 7 9 10 8 7 8 7 7 10 12 13 12 8 8 7 7 9 8 9 10 8 12 13 13 12 12 11 11 11 10 10 11
6 8 10 11 9 7 5 4 3 4 3 3 4 5 6 7 7 8 8 7 6 5 5 3 5 5 7 9 11 11 11 12 12 14 15 15 15 16
13 14 14 13 12 11 10 10 8 5 3 3 3 4 5 6 7 7 7 7 6 5 4 3 4 4 4 6 5 10 11 13 13 14 15 16 17 18
14 14 12 9 9 8 9 6 3 3 4 5 7 8 9 10 11 11 12 12 11 9 9 8 8 8 6 6 8 8 10 10 14 15 15 17 18 18
11 9 7 7 6 7 5 3 4 5 6 7 8 8 9 9 9 10 9 9 6 7 11 10 8 7 6 7 7 8 9 9 12 12 14 16 16 17
5 5 5 5 6 6 6 6 6 6 7 7 7 8 9 9 10 10 9 8 8 9 11 11 11 9 8 7 6 9 10 11 12 14 16 16 16 15
3 3 5 6 7 7 7 8 8 7 8 8 8 8 9 10 10 10 9 9 9 9 10 11 12 10 8 11 12 9 10 12 14 15 16 17 19 17
4 6 7 7 7 7 7 7 8 8 8 8 9 9 9 9 10 10 10 9 9 10 10 11 11 11 11 11 11 15 14 15 16 17 17 18 22 22
6 7 7 7 6 6 7 7 7 8 8 8 9 9 9 9 9 10 10 11 10 11 11 10 11 11 10 13 16 18 18 19 16 19 21 22 24 26
7 6 6 6 6 6 7 8 8 9 9 9 9 9 10 9 9 9 10 12 12 10 11 11 12 16 13 14 16 16 16 17 19 22 23 24 27 28
6 5 5 5 5 6 7 7 7 8 9 9 9 10 9 9 9 10 10 10 10 11 12 13 13 13 13 14 17 19 20 20 21 20 22 23 25 27
5 5 5 6 6 6 6 7 7 7 8 8 9 9 10 9 10 9 10 10 11 11 12 14 14 13 14 15 17 19 21 23 23 24 22 20 24 30
Wind_Direction
228 231 232 235 238 239 240 243 244 249 253 256 259 262 254 249 247 252 260 269 257 261 270 272 278 274 272 270 270 270 269 268 267 267 269 272 274 275
230 232 234 236 240 243 243 244 246 248 259 258 255 255 256 254 258 257 261 266 265 272 276 264 273 277 278 277 274 270 273 268 266 266 268 272 273 272
223 227 232 238 241 245 248 248 254 254 259 258 259 258 260 260 265 263 268 264 265 271 275 274 279 280 278 277 278 263 266 271 271 267 268 273 273 273
231 234 236 239 241 246 250 251 258 260 258 259 265 273 266 270 263 267 264 269 270 272 275 278 280 277 277 275 273 270 272 271 269 269 271 274 275 273
239 243 242 244 248 253 252 254 258 265 264 266 268 271 270 269 267 272 270 272 273 274 278 280 283 285 284 280 276 271 270 266 266 265 267 270 271 271
244 243 251 251 260 257 261 260 259 260 265 263 266 269 264 268 264 263 263 266 266 266 268 274 281 285 286 286 283 280 274 268 267 266 266 267 268 268
253 255 258 260 263 263 265 267 268 265 267 263 256 263 267 263 260 264 263 266 270 273 273 274 280 281 274 267 268 274 274 271 270 268 267 267 271 271
260 260 263 265 264 267 270 271 271 262 261 263 261 260 264 268 271 267 267 266 266 265 263 256 257 257 254 258 262 265 264 269 275 273 272 268 267 266
247 250 253 255 260 263 265 266 265 264 263 263 263 260 259 256 257 258 258 263 262 268 268 269 264 268 269 267 268 269 268 271 269 270 272 275 277 276
250 250 252 254 255 256 257 259 260 261 263 266 268 271 274 281 282 284 285 283 281 282 280 276 278 276 276 277 280 284 287 289 290 287 286 284 279 273
256 259 262 266 268 267 267 267 267 269 274 277 277 281 289 291 306 301 296 292 288 281 279 283 276 269 265 275 281 284 289 298 294 299 297 293 287 279
278 303 325 338 340 321 292 268 266 270 290 307 318 319 320 327 326 334 332 322 313 295 304 302 295 290 303 289 289 291 290 290 294 293 292 293 293 293
76 68 60 49 45 48 57 78 75 82 60 21 358 344 350 4 20 31 34 29 28 13 356 342 318 292 274 289 293 284 283 287 290 292 289 287 286 284
86 80 75 66 63 69 76 79 80 76 58 31 22 26 23 21 19 16 14 12 9 358 340 322 302 301 291 285 277 293 300 295 293 293 294 292 289 283
78 78 75 69 66 69 75 76 71 63 38 19 18 10 5 360 355 351 345 343 339 329 319 309 304 302 307 309 307 308 313 301 303 302 300 300 300 295
71 76 78 72 66 67 66 42 23 17 11 8 6 356 351 350 350 352 356 356 349 348 343 334 327 325 319 312 308 301 311 313 310 315 310 307 301 298
49 45 46 47 40 35 27 17 12 9 6 7 6 4 2 1 359 1 3 2 359 352 347 350 345 332 316 314 314 313 314 313 311 312 314 310 307 303
15 37 42 37 34 28 25 18 15 16 19 16 12 11 7 2 4 2 4 2 354 347 346 345 348 347 328 311 316 312 316 313 312 313 313 308 304 302
35 42 40 35 33 29 29 27 22 19 18 14 9 5 6 1 4 360 358 356 349 344 340 340 345 344 334 317 311 320 323 319 318 315 310 307 302 301
37 39 38 36 37 32 28 25 16 13 11 9 2 359 1 359 359 357 352 348 345 339 334 334 334 332 326 314 306 309 317 315 314 310 310 305 300 304
37 36 37 33 24 16 11 7 4 2 360 359 355 355 354 357 351 347 343 339 350 331 329 325 320 326 322 314 312 308 306 314 306 305 305 305 307 306
29 23 15 9 7 4 359 359 358 353 352 353 349 348 347 349 343 339 336 336 332 328 322 321 322 324 322 314 310 310 314 310 315 313 308 304 299 294
7 5 358 351 355 349 350 346 344 345 343 345 344 342 341 341 336 333 330 329 328 326 325 325 323 322 318 315 312 315 315 318 319 318 313 308 300 294